Powrót do katalogu

DELTA 4 R/B

AktywnyMEO
NORAD 32288·ROCKET BODY·🇺🇸 United States

Wystrzelony Nov 11, 2007 z Cape Canaveral Space Force Station

Loading…

Następne Przeloty (najbliższe 24 godziny)

TLE

ŚwieżeSource: Space-Track

Epoka: Sep 13, 2026, 07:36 UTC

1 32288U 07054B   26256.31668859 -.00000197  00000-0  00000+0 0  9993
2 32288  11.7118  50.7253 0245318 143.4596 218.3350  0.95871030 26082

Śledź DELTA 4 R/B w czasie rzeczywistym z AllMySat

Download on the App Store